SCP
7 7 5 3 2 2 2 2 2 2 1 1 0 0 0 0 0 0 0 0 0 0 0 0 0 0 0 0 0 0 0 0 0 0 0 0 0 0 0 0 0 1 1
8 6 4 3 2 2 2 2 2 2 2 1 1 0 0 0 0 1 1 0 0 0 0 0 0 0 0 0 0 0 0 0 0 0 0 0 0 0 0 0 0 1 1
7 6 3 2 2 2 2 2 2 2 2 1 1 0 0 0 0 1 1 1 1 0 0 0 0 0 0 0 0 0 0 0 0 0 0 0 0 0 0 0 0 0 1
5 4 3 2 2 3 2 2 2 2 2 2 1 1 0 0 0 1 1 1 1 0 0 0 0 0 0 0 0 0 0 0 0 0 0 0 0 0 0 0 0 0 0
3 3 3 2 3 3 3 2 2 2 2 2 1 1 1 0 0 0 1 1 1 1 0 0 0 0 0 0 0 0 0 0 0 0 0 0 0 0 0 0 0 0 0
3 3 3 3 3 3 3 2 2 2 2 2 2 1 1 0 0 0 0 1 1 1 1 1 0 0 0 0 0 0 0 0 0 0 1 1 1 1 0 0 0 0 0
4 4 3 2 3 4 4 3 2 2 2 2 2 2 1 1 0 0 0 1 1 1 1 1 1 0 0 0 0 0 0 0 0 0 1 1 1 1 1 1 1 0 0
5 4 3 3 4 6 6 5 3 2 2 2 2 2 1 1 1 1 1 1 1 1 1 1 1 1 1 1 1 1 1 0 0 0 1 1 1 1 1 1 1 1 1
5 4 4 4 5 6 6 5 4 3 3 3 2 2 2 2 2 1 1 1 1 1 2 1 1 1 1 1 1 1 1 1 1 1 1 1 1 1 1 1 1 1 1
3 4 4 4 5 5 5 5 4 4 4 3 3 3 2 2 3 2 2 1 1 1 1 1 1 1 1 1 1 1 1 0 1 1 1 1 1 1 1 1 1 1 1
3 3 3 3 4 4 3 4 4 3 3 4 4 4 4 4 4 3 2 2 1 1 1 1 1 1 1 1 1 1 1 1 1 1 1 1 1 1 1 1 1 1 1
3 3 3 3 3 3 3 3 3 3 4 5 6 6 6 6 5 4 3 2 1 1 1 1 1 1 1 1 1 1 1 1 1 1 1 1 1 1 1 1 1 1 1
4 4 3 3 3 4 4 4 4 4 6 8 8 8 7 6 5 4 4 3 2 2 2 2 1 1 2 2 2 2 2 2 2 2 2 2 2 1 1 2 2 1 1
4 4 4 3 4 5 5 5 5 7 9 10 8 6 5 5 4 5 5 4 3 3 2 2 2 2 2 2 2 2 2 3 3 3 2 2 2 2 2 2 2 2 2
4 4 4 4 5 7 8 7 8 11 13 11 8 6 5 5 4 5 6 6 5 4 3 3 3 3 3 2 3 3 3 3 3 3 2 2 2 2 2 2 3 3 3
5 5 6 7 10 13 14 13 15 18 18 14 10 7 6 4 4 5 7 8 6 5 5 4 4 4 3 3 3 4 4 3 3 3 3 3 3 2 2 2 2 2 3
9 9 11 14 19 22 22 20 21 22 19 14 9 6 5 4 4 5 7 9 9 7 6 5 5 5 4 3 3 3 4 4 3 3 3 3 3 2 2 2 2 2 2
14 14 16 20 25 26 23 21 20 17 12 8 6 5 5 5 5 5 6 8 9 10 9 8 7 7 6 4 3 3 3 4 4 4 3 3 3 3 3 2 2 1 1
20 19 17 18 19 18 16 13 11 9 6 4 5 5 5 5 5 5 5 6 8 10 11 10 9 9 8 6 4 3 4 5 5 4 4 4 4 3 2 2 2 2 1
20 16 12 11 10 8 7 7 6 6 5 5 6 6 6 6 5 5 5 6 7 9 11 11 11 10 9 8 6 4 6 7 6 5 4 4 3 2 1 1 2 2 2
12 9 6 5 4 4 5 5 6 7 7 8 9 8 7 6 6 6 6 6 7 8 10 10 9 9 9 8 5 4 6 7 6 4 3 3 2 1 1 1 1 2 2
5 4 3 3 3 4 5 5 6 8 11 13 13 10 8 6 6 6 6 7 7 8 8 7 6 6 6 6 4 2 3 5 5 4 3 2 1 1 0 0 1 1 1
4 4 3 2 2 4 5 5 6 10 15 16 14 10 7 5 5 6 6 6 6 6 6 5 3 3 3 4 3 1 1 2 4 4 2 1 1 0 0 0 0 1 1
5 4 3 2 2 3 5 5 7 12 15 14 11 7 5 4 4 5 5 5 4 3 3 3 2 2 2 2 2 1 1 1 2 2 2 1 0 0 0 0 0 1 1
5 5 4 3 3 4 6 7 10 12 12 11 8 5 4 3 3 4 4 4 3 2 2 2 2 2 2 2 2 1 1 1 1 1 1 1 1 0 0 0 0 1 1
5 5 4 3 3 5 7 9 11 11 10 9 7 5 4 3 3 3 3 3 3 2 2 2 2 2 1 1 1 1 1 1 1 1 1 1 1 1 1 1 1 1 1
Wind_Speed
9 10 10 10 9 8 7 7 6 5 4 3 2 2 2 2 1 2 3 3 3 3 3 3 2 2 2 3 3 2 3 1 2 2 1 1 1 1 2 2 3 4 4
8 9 9 10 10 9 8 7 7 6 5 3 3 2 3 2 2 1 2 3 3 3 3 3 3 2 2 3 2 3 2 1 2 2 2 1 2 2 1 1 2 3 2
12 11 10 10 10 9 9 9 7 6 6 4 3 2 2 2 1 1 1 2 3 3 2 3 3 3 3 3 3 3 4 2 1 2 3 3 2 1 2 1 2 2 2
12 12 11 11 11 11 9 8 8 7 6 5 4 5 4 3 2 2 2 2 3 3 3 3 3 2 2 2 3 3 3 3 2 1 1 2 3 2 1 2 1 2 3
13 13 13 13 11 11 10 8 8 7 6 6 6 5 4 3 2 2 2 2 1 2 2 3 3 2 2 2 2 2 2 2 3 2 1 1 1 1 2 1 1 1 2
12 12 11 10 9 9 9 9 8 6 6 6 6 6 5 4 4 3 3 2 1 1 2 2 2 2 2 2 2 2 3 2 2 2 2 2 2 2 2 2 2 2 2
11 11 11 11 10 11 10 9 9 8 7 7 6 6 6 5 5 4 4 3 2 2 2 2 2 2 2 2 2 2 2 2 2 3 2 2 2 2 2 2 2 2 2
9 11 12 12 11 12 11 10 10 9 8 8 7 5 5 4 3 4 4 4 3 3 3 3 2 3 3 3 2 2 2 1 2 2 2 2 2 2 2 3 3 1 2
9 9 10 10 10 11 11 10 10 9 8 8 7 5 5 5 4 4 4 3 3 3 3 4 3 3 3 3 3 2 2 2 2 2 2 2 2 1 2 2 3 3 2
8 8 9 10 10 10 10 10 10 9 8 8 7 6 5 5 4 4 4 3 3 3 3 3 3 3 3 3 3 2 2 2 2 1 1 1 1 1 1 2 2 2 3
9 9 9 9 9 8 9 9 8 8 8 8 7 5 5 4 4 4 4 4 3 3 4 4 3 3 3 3 2 2 2 2 2 2 2 3 2 2 2 1 1 2 2
7 8 8 8 8 8 8 9 9 8 7 7 6 6 5 5 5 5 5 4 4 4 4 4 4 4 4 3 3 3 3 3 3 3 2 3 2 2 2 2 2 2 3
5 6 7 7 7 7 7 7 8 8 7 6 6 5 5 5 5 5 4 4 4 4 4 4 4 4 4 4 4 4 4 4 4 3 3 3 2 3 2 2 2 2 2
4 5 6 6 6 6 6 6 6 7 7 6 6 5 5 5 5 5 5 5 5 5 4 4 4 4 4 4 4 4 4 3 4 4 4 3 4 4 3 3 3 2 2
4 3 3 4 5 5 5 6 6 6 6 6 6 6 5 5 5 5 5 5 5 5 4 4 3 3 4 4 4 4 4 4 4 3 3 4 4 4 4 3 3 2 2
5 5 4 4 5 5 5 5 5 6 6 7 7 6 5 5 5 6 5 5 5 5 4 4 4 4 4 4 5 5 4 3 4 4 4 4 4 4 5 5 4 4 4
5 5 4 5 5 5 5 5 6 5 6 6 6 6 5 5 4 5 4 5 5 5 4 4 4 4 4 4 5 6 4 4 4 4 3 3 3 3 3 4 4 4 6
5 4 3 3 3 2 3 3 4 5 5 5 4 5 5 4 4 4 4 5 4 4 4 4 4 4 4 4 5 5 4 3 4 4 4 4 3 3 2 2 3 3 4
4 4 3 4 3 3 3 4 3 3 4 4 4 5 5 5 4 4 4 4 3 4 4 4 4 4 4 4 5 5 3 3 4 4 3 4 3 3 3 2 3 4 4
4 4 3 4 4 3 4 5 3 3 2 3 4 4 4 5 5 5 4 3 3 4 3 3 4 4 4 4 6 6 3 3 3 3 3 3 3 4 4 3 3 4 5
4 4 4 4 3 2 4 4 3 3 3 2 2 2 3 3 3 3 3 3 3 3 2 3 2 3 4 4 5 5 3 3 3 2 3 3 4 4 4 4 4 6 5
3 4 4 3 2 2 3 3 2 2 1 1 2 2 2 2 2 2 2 2 2 3 2 2 1 1 2 2 3 4 4 3 3 3 3 3 4 4 5 4 5 5 3
3 3 4 3 2 2 2 2 1 1 2 2 1 1 1 1 1 1 2 1 1 1 1 1 1 2 2 1 0 1 2 2 2 2 3 3 4 3 3 4 4 2 1
3 3 4 4 2 1 1 2 1 2 3 2 1 1 1 1 1 1 1 2 1 1 1 1 1 2 2 1 1 0 1 1 1 1 2 3 2 1 2 2 2 1 2
2 3 3 2 1 1 1 1 2 3 3 2 1 1 1 1 1 1 1 1 1 3 3 2 2 2 2 4 3 2 2 2 2 1 1 1 1 1 1 1 1 1 1
3 3 2 2 1 2 2 1 1 3 3 2 1 1 1 1 1 1 2 3 1 2 3 3 3 2 3 4 3 2 1 1 2 3 1 1 1 1 1 1 2 2 2
Wind_Direction
169 161 159 156 151 149 147 150 148 155 149 140 137 128 128 134 134 140 144 145 141 132 130 133 134 133 135 148 143 128 127 131 126 96 56 3 322 212 202 193 184 190 194
161 164 163 161 160 160 157 154 157 160 162 159 157 152 147 152 160 148 137 149 146 146 146 141 151 152 144 146 148 136 134 156 141 129 112 38 353 335 262 188 183 189 188
170 170 168 168 166 166 167 165 164 163 164 155 134 121 94 87 92 109 144 158 149 151 144 149 153 156 155 165 175 167 158 161 180 154 144 150 204 280 321 229 193 186 186
174 173 172 173 176 175 171 165 164 165 167 160 152 148 148 156 182 176 167 169 161 155 149 147 154 156 160 170 191 179 167 153 174 218 181 170 164 164 261 321 278 216 210
178 177 177 179 179 175 172 168 163 167 168 166 164 160 162 172 160 150 149 162 176 171 164 161 164 169 174 177 178 165 165 159 169 182 177 167 168 158 157 229 283 292 242
178 177 174 172 176 174 171 169 166 171 172 168 166 166 168 166 153 154 164 175 179 187 188 170 164 170 172 176 181 180 174 177 172 176 172 170 174 189 173 195 223 243 257
174 171 172 173 176 174 173 172 171 175 177 173 173 176 178 175 174 175 178 176 178 192 207 187 177 174 179 176 175 176 188 189 183 190 193 191 198 181 165 165 205 234 263
176 176 178 173 172 172 171 172 176 179 179 178 180 179 177 177 182 181 179 184 191 199 193 181 176 179 183 184 176 179 201 201 205 208 197 195 212 183 173 174 173 215 279
173 177 177 171 169 169 173 175 178 178 181 182 178 179 179 179 180 177 177 184 192 195 189 187 182 186 188 183 174 189 198 199 214 217 209 210 228 208 197 182 173 174 220
172 179 182 175 173 170 167 170 176 180 180 181 184 186 187 184 177 169 173 179 187 190 180 185 185 188 194 188 183 190 198 198 226 216 211 234 246 241 221 204 198 183 186
176 181 184 179 173 164 166 169 176 177 178 181 183 183 182 182 175 176 187 189 182 175 175 183 185 193 197 195 190 201 193 202 227 237 223 240 237 242 242 219 207 205 185
175 178 175 169 165 170 175 176 178 177 178 176 174 181 181 180 184 190 192 186 183 185 185 185 186 196 200 197 197 209 208 205 220 235 235 250 248 247 247 230 227 224 210
157 165 160 165 170 171 175 175 177 179 177 170 167 171 181 187 195 198 194 191 190 189 189 189 193 202 202 198 201 204 206 208 217 223 224 240 241 252 256 246 244 241 233
143 152 152 167 173 170 169 172 177 174 171 168 169 176 187 192 199 200 197 196 194 194 196 198 199 198 199 199 201 202 207 215 224 225 223 227 225 236 244 245 245 234 232
125 139 153 165 166 165 167 167 169 168 167 166 176 189 192 191 191 196 203 199 199 205 202 198 204 204 203 206 202 209 212 217 230 238 235 232 228 231 231 236 236 225 221
133 135 144 149 156 165 164 163 164 166 163 170 183 186 183 191 198 198 196 197 204 209 202 203 208 213 224 221 204 200 213 218 224 238 244 247 242 248 247 246 236 214 213
127 138 159 158 163 168 161 162 165 162 165 177 182 179 181 191 201 198 190 197 205 206 209 211 207 217 232 226 211 203 205 214 222 225 231 250 256 245 251 260 260 250 240
131 135 140 139 144 138 141 146 147 150 163 176 186 187 184 189 193 194 201 207 202 202 209 208 210 216 233 220 209 202 206 217 230 224 217 224 246 249 234 250 265 267 260
129 136 131 124 112 112 117 113 118 145 162 183 191 191 184 183 187 198 206 205 197 201 206 205 205 213 237 225 212 201 212 224 238 239 230 220 224 240 220 215 248 272 278
95 108 112 100 100 108 115 114 125 139 173 202 201 194 186 185 194 204 210 206 194 204 204 210 211 213 228 227 216 203 203 218 237 248 247 234 229 241 216 205 223 255 264
91 88 98 103 112 125 128 136 145 179 199 192 179 172 175 187 196 202 205 197 191 189 199 209 225 229 233 232 215 201 199 214 225 237 247 252 255 254 241 225 225 245 252
95 89 90 86 76 92 115 131 167 207 144 124 141 159 170 190 189 173 180 170 162 163 178 180 231 277 278 259 219 202 208 210 206 228 241 255 266 264 256 244 254 261 255
105 98 99 91 70 71 105 129 186 120 101 88 122 142 139 154 160 168 169 148 137 146 168 166 225 275 299 310 281 193 200 211 212 241 262 280 287 274 259 263 271 259 229
105 104 95 96 97 105 103 140 148 114 105 111 164 148 125 118 113 148 153 145 153 158 168 183 246 266 293 309 333 302 269 287 271 292 304 311 312 291 285 297 280 252 226
99 101 104 115 126 104 86 104 122 114 106 105 118 116 119 131 105 74 67 143 173 175 176 201 216 224 256 258 237 203 231 225 211 177 17 357 347 328 318 308 298 289 295
106 93 90 111 119 107 93 74 108 124 120 105 86 108 129 127 121 103 62 48 112 138 159 179 189 229 241 268 261 249 243 247 140 121 134 258 269 267 272 288 299 295 285